Regional Weather Roundup
Issued by NWS

Home | Current Version | Previous Version | Graphics & Text | Print | Product List | Glossary On
Versions: 1 2 3 4 5 6 7 8 9 10 11 12 13 14 15 16 17 18 19 20 21 22 23 24 25 26 27 28 29 30 31 32 33 34 35 36 37 38 39 40 41 42 43 44 45 46 47 48 49 50
010
ASUS43 KDMX 061208
RWRIA

WEATHER ROUNDUP FOR IOWA
NATIONAL WEATHER SERVICE DES MOINES IA
600 AM CST SAT FEB 06 2016

NOTE: "FAIR" INDICATES FEW OR NO CLOUDS BELOW 12,000 FEET WITH NO
SIGNIFICANT WEATHER AND/OR OBSTRUCTIONS TO VISIBILITY.

* - THESE STATIONS ARE NOT NWS STATIONS...THUS NOT UNDER NWS
QUALITY CONTROL.  THEY ALSO DO NOT REPORT WEATHER SUCH
AS PRECIPITATION OR FOG.

IAZ001>003-012>014-020>022-031>034-043>046-061300-
   NORTHWEST IOWA

CITY           SKY/WX    TMP DP  RH WIND       PRES   REMARKS
CARROLL *      CLOUDY    28  28 100 W7        30.22S FOG     WCI  21
CHEROKEE *     FOG       25  25 100 SW9       30.20S VSB 1/2 WCI  15
DENISON *      CLOUDY    28  28 100 W7        30.21S FOG     WCI  21
LE MARS *      FOG       21  21 100 S7        30.20S VSB 0   WCI  13
ORANGE CITY *  SNOW      19  18  93 CALM      30.17F VSB 1/4
SHELDON *      FOG       21  21 100 S6        30.16S VSB 1/4 WCI  14
SIOUX CITY     FOG       16  12  84 E7        30.21F VSB 1/4 WCI   6
6HR MIN TEMP:  16; 6HR MAX TEMP:  31;

SPENCER        FOG       26  22  84 SW10      30.18S VSB 1/4 WCI  16
6HR MIN TEMP:  18; 6HR MAX TEMP:  26;

STORM LAKE *   FOG       23  23 100 SW9       30.19S VSB 0   WCI  13
$$

IAZ055>058-069>071-079>083-090>094-061300-
   SOUTHWEST IOWA

CITY           SKY/WX    TMP DP  RH WIND       PRES   REMARKS
ATLANTIC *     CLOUDY    30  28  93 CALM      30.25R FOG
AUDUBON *      CLOUDY    28  27  93 W3        30.24R FOG
CLARINDA *     MOCLDY    28  28 100 NW5       30.27S WCI  23
COUNCIL BLFS * CLOUDY    28  28 100 NW7       30.24S WCI  21
CRESTON *      CLOUDY    27  27 100 NW8       30.23S FOG     WCI  18
HARLAN  *      CLOUDY    28  28 100 NW6       30.27S FOG     WCI  22
LAMONI         PTCLDY    25  21  85 W5        30.23R WCI  19
6HR MIN TEMP:  24; 6HR MAX TEMP:  28;

RED OAK *      CLOUDY    30  30 100 NW5       30.26R WCI  25
SHENANDOAH *   CLOUDY    32  32 100 W3        30.27S
$$

IAZ047>049-059>061-072>074-084-061300-
   CENTRAL IOWA

CITY           SKY/WX    TMP DP  RH WIND       PRES   REMARKS
AMES           CLOUDY    30  27  88 W10       30.23R WCI  21
6HR MIN TEMP:  29; 6HR MAX TEMP:  31;

ANKENY *       CLOUDY    30  30 100 CALM      30.24S
BOONE *        CLOUDY    30  28  93 W8        30.22R FOG     WCI  23
CHARITON *     PTCLDY    25  21  86 SW5       30.24S WCI  19
DES MOINES     CLOUDY    29  25  85 W3        30.24R
6HR MIN TEMP:  29; 6HR MAX TEMP:  31;

GRINNELL*      CLOUDY    30  27  86 SW5       30.23S WCI  25
KNOXVILLE *    CLOUDY    25  21  86 SW3       30.23S
MARSHALLTOWN   CLOUDY    30  27  88 W10       30.22S WCI  21
6HR MIN TEMP:  28; 6HR MAX TEMP:  30;

NEWTON *       CLOUDY    28  28 100 CALM      30.23S
PELLA *        CLOUDY    26  22  84 SW5       30.25S WCI  21
$$

IAZ004>006-015-016-023>025-035-036-061300-
   NORTH CENTRAL IOWA

CITY           SKY/WX    TMP DP  RH WIND       PRES   REMARKS
ALGONA *       CLOUDY    27  27 100 SW10      30.19R FOG     WCI  17
CLARION *      CLOUDY    28  27  93 W12       30.20F WCI  18
ESTHERVILLE    FOG       24  23  96 SW14      30.16S VSB 3/4 WCI  12
6HR MIN TEMP:  22; 6HR MAX TEMP:  26;

FORT DODGE *   CLOUDY    27  23  86 W6        30.22S WCI  20
MASON CITY     CLOUDY    26  24  92 W9        30.20S WCI  17
6HR MIN TEMP:  25; 6HR MAX TEMP:  27;

FOREST CITY *  CLOUDY    27  27 100 SW7       30.19S FOG     WCI  19
WEBSTER CITY * CLOUDY    28  28 100 W12       30.20S FOG     WCI  18
IOWA FALLS *   CLOUDY    30  28  93 W9        30.22S FOG     WCI  22
$$

IAZ007>011-017>019-026>030-037>042-050>054-066-061300-
   NORTHEAST IOWA

CITY           SKY/WX    TMP DP  RH WIND       PRES   REMARKS
CEDAR RAPIDS   CLOUDY    29  25  85 S5        30.23S WCI  24
6HR MIN TEMP:  27; 6HR MAX TEMP:  29;

CHARLES CITY * CLOUDY    28  28 100 W14       30.20S FOG     WCI  17
CLINTON *      CLOUDY    27  25  92 SW7       30.26S WCI  19
DECORAH *      CLOUDY    27  27 100 VRB6G14   30.18S FOG     WCI  20
DUBUQUE        CLOUDY    27  23  85 SW8       30.22R WCI  19
6HR MIN TEMP:  21; 6HR MAX TEMP:  27;

MONTICELLO *   CLOUDY    28  25  86 S5        30.23S WCI  23
OELWEIN *      CLOUDY    28  28 100 W10       30.21S FOG     WCI  19
WATERLOO       CLOUDY    29  27  92 SW8       30.22R FOG     WCI  21
6HR MIN TEMP:  27; 6HR MAX TEMP:  29;

$$

IAZ064-065-067-068-078-061300-
   EAST CENTRAL IOWA

CITY           SKY/WX    TMP DP  RH WIND       PRES   REMARKS
DAVENPORT      CLOUDY    29  23  78 SW8       30.26S WCI  21
6HR MIN TEMP:  25; 6HR MAX TEMP:  29;

IOWA CITY      PTCLDY    26  22  84 CALM      30.27S
6HR MIN TEMP:  26; 6HR MAX TEMP:  29;

MT. PLEASANT * CLEAR     27  23  85 SE5       30.26S WCI  21
MUSCATINE *    MOCLDY    27  23  86 CALM      30.28S
QUAD CITIES    CLOUDY    30  23  75 CALM      30.26F
6HR MIN TEMP:  27; 6HR MAX TEMP:  30;

$$

IAZ062-063-075>077-085>089-095>099-061300-
   SOUTHEAST IOWA

CITY           SKY/WX    TMP DP  RH WIND       PRES   REMARKS
BURLINGTON     CLEAR     25  22  88 SE3       30.26S
6HR MIN TEMP:  25; 6HR MAX TEMP:  29;

FAIRFIELD *    CLEAR     23  18  80 CALM      30.25S
FORT MADISON * CLEAR     27  21  80 S6        30.26F WCI  20
KEOKUK *       CLEAR     27  21  80 CALM      30.26R
OSKALOOSA *      N/A     24  21  89 W3        30.25S
CENTERVILLE *    N/A    N/A N/A N/A MISG        N/A
OTTUMWA        CLEAR     22  18  85 CALM      30.24S
6HR MIN TEMP:  22; 6HR MAX TEMP:  30;

WASHINGTON *   CLEAR     25  21  86 CALM      30.27S
$$

ABBREVIATIONS USED IN REMARKS
   TC - TEMPERATURES IN CELSIUS
  WCI - WIND CHILL INDEX
   HX - HEAT INDEX
  VSB - VISIBILITY
$$





USA.gov is the U.S. government's official web portal to all federal, state and local government web resources and services.